Simultaneous Nadir Overpasses (SNOs) Predictions

Prediction of SNOs between AQUA and NOAA-19 Satellite Orbit:

Table of predicted SNOs for the next 14.0 days since TLE Epoch: 1/7/2012
Index Date Time (AQUA) AQUA Lat,Lon NOAA-19 Lat,Lon Distance(km) Time Diff (sec)
1 01/07/2012 22:02:13 -50.33,-116.80 -50.33,-116.80 0.14 6
2 01/10/2012 02:45:23 -54.33, 173.98 -54.33, 173.97 0.37 25
3 01/12/2012 06:42:37 45.72, -68.40 45.72, -68.41 0.82 34
4 01/14/2012 11:25:30 50.71,-137.48 50.71,-137.49 0.70 3
5 01/16/2012 15:22:57 -41.60, -19.63 -41.59, -19.64 1.22 56
6 01/18/2012 20:05:28 -47.79, -88.47 -47.79, -88.47 0.17 25




NCC Satellite Simultaneous Nadir Overpasses (SNOs) Prediction Service
